Home > Weather > Messina > Past weeks

Flag for Italy Weather for the Past 2 Weeks in Messina, Italy

Now
64 °F

Passing clouds.


Feels Like: 64 °F
Forecast: 61 / 64 °F
Wind: 9 mph from North

Location: Reggio Calabria

Current Time: Feb 13, 2016 at 9:14:15 PM

Latest Report: Feb 13, 2016 at 7:50 PM


Visibility: N/A

Pressure: 29.74 "Hg

Humidity: 68%

Dew point: 54 °F

Location of MessinaLocation

Historic Weather in Messina — Graph

°F

Messina Temperature Yesterday

Maximum temperature yesterday: 64 °F (at 12:50 PM)
Minimum temperature yesterday: 52 °F (at 6:50 AM)
Average temperature yesterday: 59 °F

High & Low Weather Summary for the Past Weeks

 TemperatureHumidityPressure
High70 °F (Feb 13, 12:50 PM)94% (Feb 8, 10:50 AM)30.51 "Hg (Feb 8, 10:50 AM)
Low43 °F (Jan 30, 6:50 AM)27% (Feb 6, 4:50 PM)29.68 "Hg (Feb 13, 6:50 AM)
Average57 °F67%30.15 "Hg
* Reported Jan 29 7:50 PM — Feb 13 7:50 PM, Messina, Weather by CustomWeather, © 2016

Note: Actual official high and low records may vary slightly from our data, if they occured in-between our weather recording intervals... More about our weather records

Advertising

Messina Weather History for the Previous 24 Hours

 ConditionsComfort  
Time TempWeatherWind HumidityBarometerVisibility
7:50 PM
Sat, Feb 13
64 °FPassing clouds.9 mph68%29.74 "HgN/A
6:50 PM66 °FPassing clouds.8 mph64%29.71 "HgN/A
5:50 PM64 °FPassing clouds.12 mph68%29.71 "HgN/A
4:50 PM64 °FScattered clouds.13 mph68%29.71 "HgN/A
3:50 PM66 °FScattered clouds.9 mph64%29.71 "HgN/A
2:50 PM66 °FScattered clouds.20 mph64%29.68 "HgN/A
1:50 PM70 °FScattered clouds.15 mph57%29.68 "HgN/A
12:50 PM70 °FScattered clouds.12 mph57%29.68 "HgN/A
11:50 AM66 °FScattered clouds.7 mph68%29.68 "HgN/A
10:50 AM64 °FPassing clouds.8 mph68%29.68 "HgN/A
9:50 AM64 °FPassing clouds.10 mph68%29.68 "HgN/A
8:50 AM63 °FScattered clouds.14 mph64%29.68 "HgN/A
7:50 AM61 °FScattered clouds.13 mph68%29.68 "HgN/A
6:50 AM61 °FScattered clouds.12 mph68%29.68 "HgN/A
6:00 AM61 °FPassing clouds.7 mph63%29.71 "HgN/A
11:50 PM
Fri, Feb 12
61 °FPassing clouds.9 mph52%29.80 "HgN/A
10:50 PM61 °FPassing clouds.9 mph59%29.80 "HgN/A
9:50 PM59 °FPassing clouds.9 mph63%29.83 "HgN/A
Weather by CustomWeather, © 2016

See weather overviewHow to use our weather pages